Regional Weather Roundup
Issued by NWS

Home | Current Version | Previous Version | Text Only | Print | Product List | Glossary On
Versions: 1 2 3 4 5 6 7 8 9 10 11 12 13 14 15 16 17 18 19 20 21 22 23 24 25 26 27 28 29 30 31 32 33 34 35 36 37 38 39 40 41 42 43 44 45 46 47 48 49 50
000
ASUS45 KBOI 011910
RWRID

IDAHO REGIONAL WEATHER ROUNDUP
NATIONAL WEATHER SERVICE BOISE ID
100 PM MDT WED JUL 01 2015

NOTE: "FAIR" INDICATES FEW OR NO CLOUDS BELOW 12000 FEET
WITH NO SIGNIFICANT WEATHER AND/OR OBSTRUCTIONS TO VISIBILITY

IDZ012-014-012000-
SOUTHWEST IDAHO


CITY           SKY/WX    TMP DP  RH WIND       PRES   REMARKS
BOISE          SUNNY     94  51  23 NW13      30.01F HX  91
CALDWELL       SUNNY     93  52  24 NW8       30.01F HX  90
MOUNTAIN HOME  MOSUNNY   97  46  17 NW8G21    30.00F HX  93
$$

IDZ016-017-012000-
SOUTHCENTRAL IDAHO


CITY           SKY/WX    TMP DP  RH WIND       PRES   REMARKS
BURLEY         SUNNY     87  56  34 W8        30.09S
JEROME         NOT AVBL
TWIN FALLS     SUNNY     93  50  23 W14       30.07F HX  90
$$

IDZ019>023-012000-
SOUTHEAST IDAHO


CITY           SKY/WX    TMP DP  RH WIND       PRES   REMARKS
IDAHO FALLS    MOSUNNY   86  56  35 S9        30.13S
POCATELLO      SUNNY     88  53  30 VRB6      30.12S
REXBURG        SUNNY     83  59  44 SW10      30.13F
$$

IDZ006-010-011-018-031-032-012000-
CENTRAL IDAHO MOUNTAINS


CITY           SKY/WX    TMP DP  RH WIND       PRES   REMARKS
MCCALL         SUNNY     84  46  26 VRB7      30.15S
HAILEY         MOSUNNY   88  52  29 E5        30.15F
STANLEY          N/A     84  35  17 NW14G26   30.26S
SALMON         SUNNY     84  52  32 N5        30.04F
CHALLIS        SUNNY     88  40  18 N3        30.11F
$$

IDZ002-004-006-007-026-012000-
NORTHERN IDAHO


CITY           SKY/WX    TMP DP  RH WIND       PRES   REMARKS
LEWISTON       SUNNY     92  50  23 VRB3      29.97F
LOWELL           N/A     93  52  24 CALM      29.95F HX  90
COEUR D`ALENE  SUNNY     88  55  33 N3        30.01S
MULLAN PASS    SUNNY     74  43  32 VRB6      30.25R
$$


USA.gov is the U.S. government's official web portal to all federal, state and local government web resources and services.